Location: ?????????
(53.2086°N, 54.0693°E)
Time: 02:47:55
(UTC+00:00)

S3M - Pass Details

Date: 08 December 2019
Orbit: 948 x 1005 km, 83.0° (Epoch: 28 January)

Event Time Altitude Azimuth Distance (km) Brightness Sun altitude
Rises 14:47:44 0° 350° (N) 3,705 7.1 -22.7°
Reaches altitude 10° 14:50:21 10° 355° (N) 2,744 6.3 -23.1°
Maximum altitude 14:56:32 57° 74° (ENE) 1,139 4.0 -24.1°
Enters shadow 14:57:42 49° 113° (ESE) 1,230 4.1 -24.2°
